Vorticity
7 10 7 7 8 9 11 10 10 9 9 12 17 15 20 19 16 8 8 8 6 8
5 5 7 10 12 14 19 21 22 26 30 25 25 14 19 19 19 25 13 9 12 7
10 12 13 11 18 17 16 20 18 16 15 20 25 24 30 20 17 24 23 18 15 11
19 13 13 16 17 15 13 13 12 12 8 12 11 19 19 16 31 9 24 21 19 19
18 18 16 13 10 11 11 17 21 15 16 23 20 11 13 29 18 23 25 22 15 18
19 15 14 11 10 18 14 18 22 24 15 19 18 17 17 5 5 13 21 26 23 14
13 13 12 18 19 19 28 17 10 19 5 20 11 23 20 17 19 22 17 28 19 25
19 19 20 19 19 19 15 6 3 7 19 18 17 13 14 15 11 6 11 6 25 25
25 19 14 14 15 16 17 18 17 14 10 20 16 12 9 22 19 17 11 12 4 36
22 19 20 29 36 37 38 37 36 34 34 27 24 25 23 20 17 15 16 10 16 4
26 44 48 17 24 38 43 38 35 36 34 35 38 38 39 35 35 27 15 13 17 2
40 -5 14 13 20 15 11 10 14 23 27 48 37 34 19 18 24 44 49 32 19 7
33 -1 -18 27 27 19 18 20 18 10 5 26 17 12 6 8 18 15 37 25 18 11
46 -3 17 -11 17 40 20 21 19 23 24 21 11 30 24 23 21 23 25 27 11 29
Height
5599 5592 5584 5576 5569 5562 5556 5550 5545 5541 5537 5534 5533 5533 5535 5541 5547 5552 5559 5568 5576 5582
5591 5582 5573 5563 5554 5546 5537 5530 5524 5520 5517 5514 5513 5514 5515 5519 5527 5533 5539 5548 5559 5567
5580 5568 5557 5547 5537 5528 5521 5514 5508 5503 5499 5497 5495 5495 5497 5500 5505 5513 5522 5530 5540 5552
5568 5556 5544 5533 5523 5514 5505 5499 5493 5488 5485 5482 5480 5480 5482 5484 5487 5495 5504 5514 5524 5535
5555 5542 5530 5519 5508 5499 5490 5483 5477 5473 5469 5466 5465 5466 5468 5471 5475 5480 5487 5497 5508 5520
5544 5531 5517 5505 5494 5484 5475 5466 5460 5455 5453 5451 5451 5451 5454 5459 5463 5468 5474 5483 5494 5507
5534 5519 5505 5492 5480 5468 5458 5451 5445 5440 5437 5436 5437 5438 5441 5445 5451 5457 5464 5472 5482 5494
5525 5509 5494 5479 5465 5454 5444 5437 5431 5426 5422 5421 5422 5424 5428 5433 5440 5448 5456 5465 5473 5484
5516 5499 5482 5467 5453 5440 5429 5420 5413 5409 5406 5404 5406 5409 5414 5419 5427 5436 5445 5456 5466 5476
5509 5491 5474 5457 5440 5425 5413 5403 5395 5389 5387 5387 5389 5393 5399 5406 5414 5423 5435 5447 5459 5470
5506 5488 5471 5455 5439 5421 5407 5396 5388 5381 5378 5376 5378 5381 5387 5393 5401 5411 5424 5438 5452 5466
5508 5493 5478 5461 5445 5429 5416 5404 5395 5387 5380 5376 5378 5381 5387 5392 5398 5404 5414 5430 5448 5463
5514 5502 5486 5469 5452 5437 5424 5413 5403 5395 5389 5386 5385 5388 5392 5397 5402 5408 5417 5431 5448 5462
5522 5509 5495 5480 5464 5448 5434 5421 5410 5401 5395 5391 5390 5391 5395 5400 5407 5414 5424 5437 5452 5465